Location: Doschendorf
(50.0069°N, 11.0602°E)
Time: 10:57:10
(UTC+00:00)

Cosmos 1447 Rocket - Pass Details

Date: 17 November 2019
Orbit: 955 x 995 km, 82.9° (Epoch: 10 December)

Event Time Altitude Azimuth Distance (km) Brightness Sun altitude
Rises 16:29:27 0° 184° (S) 3,655 7.8 -9.6°
Reaches altitude 10° 16:31:56 10° 183° (S) 2,718 7.1 -10.0°
Maximum altitude 16:38:10 82° 98° (E) 1,000 4.5 -11.0°
Drops below altitude 10° 16:44:32 10° 11° (N) 2,763 6.6 -11.9°
Sets 16:47:04 0° 11° (N) 3,720 7.3 -12.3°
